Predannack Airport


Codes: EGDO/
Name: Predannack Airport
City: Predannack Wollas
Country: United Kingdom
Elevation: 295 ft.
Wikipedia:

Photos at Predannack Airport


   Photos courtesy of SpottingLog. You can add your own sightings and photos by signing up for a free trial today.



No photos found.

Weather at Predannack Airport


Time (UTC)DescriptionTempratureWindCloud coverageVisibilityPressureHumidity
21-Feb-2024 03:00Moderate Rain10°C31 mph, SW100%8635m1016hPa93%
21-Feb-2024 06:00Moderate Rain10°C36 mph, S100%6006m1014hPa94%
21-Feb-2024 09:00Moderate Rain11°C36 mph, SW100%4923m1009hPa95%
21-Feb-2024 12:00Light Rain11°C29 mph, W100%10000m1006hPa88%
21-Feb-2024 15:00Overcast Clouds11°C18 mph, W100%10000m1005hPa94%
21-Feb-2024 18:00Overcast Clouds11°C13 mph, SW100%10000m1005hPa96%
21-Feb-2024 21:00Overcast Clouds10°C13 mph, SW100%10000m1002hPa93%
22-Feb-2024 00:00Overcast Clouds10°C18 mph, SW93%10000m1000hPa93%
22-Feb-2024 03:00Overcast Clouds11°C22 mph, SW100%10000m995hPa93%
22-Feb-2024 06:00Light Rain11°C29 mph, SW98%8727m988hPa92%
22-Feb-2024 09:00Moderate Rain9°C22 mph, W100%10000m983hPa89%
22-Feb-2024 12:00Moderate Rain6°C31 mph, W100%4346m989hPa93%
22-Feb-2024 15:00Light Rain7°C34 mph, W83%10000m992hPa60%
22-Feb-2024 18:00Light Rain6°C29 mph, W79%10000m993hPa79%
22-Feb-2024 21:00Light Rain7°C31 mph, W98%10000m993hPa65%
23-Feb-2024 00:00Light Rain7°C31 mph, W97%10000m992hPa70%
23-Feb-2024 03:00Light Rain7°C27 mph, W98%10000m992hPa70%
23-Feb-2024 06:00Light Rain7°C22 mph, W99%10000m991hPa70%
23-Feb-2024 09:00Light Rain4°C22 mph, W100%10000m991hPa91%
23-Feb-2024 12:00Light Rain6°C22 mph, W100%10000m991hPa66%
23-Feb-2024 15:00Light Rain6°C25 mph, W100%10000m990hPa68%
23-Feb-2024 18:00Light Rain6°C18 mph, W87%10000m990hPa64%
23-Feb-2024 21:00Light Rain6°C20 mph, W51%10000m990hPa63%
24-Feb-2024 00:00Light Rain7°C22 mph, W62%10000m990hPa72%
24-Feb-2024 03:00Light Rain7°C31 mph, W100%10000m988hPa74%
24-Feb-2024 06:00Light Rain7°C27 mph, NW100%10000m989hPa75%
24-Feb-2024 09:00Light Rain7°C25 mph, NW88%10000m992hPa72%
24-Feb-2024 12:00Scattered Clouds8°C27 mph, NW48%10000m995hPa71%
24-Feb-2024 15:00Clear Sky8°C20 mph, NW6%10000m998hPa71%
24-Feb-2024 18:00Clear Sky8°C18 mph, NW6%10000m1000hPa73%
24-Feb-2024 21:00Broken Clouds8°C16 mph, NW69%10000m1001hPa74%
25-Feb-2024 00:00Light Rain8°C13 mph, W81%10000m1001hPa74%
25-Feb-2024 03:00Overcast Clouds8°C9 mph, SW100%10000m998hPa68%
25-Feb-2024 06:00Light Rain7°C16 mph, S100%10000m994hPa81%
25-Feb-2024 09:00Moderate Rain7°C27 mph, SE100%6137m991hPa90%
25-Feb-2024 12:00Moderate Rain6°C34 mph, SE100%6437m986hPa94%
25-Feb-2024 15:00Moderate Rain10°C16 mph, SW100%10000m979hPa89%
25-Feb-2024 18:00Light Rain10°C7 mph, W100%10000m977hPa93%
25-Feb-2024 21:00Overcast Clouds7°C18 mph, N100%10000m979hPa93%
26-Feb-2024 00:00Overcast Clouds5°C25 mph, N100%10000m980hPa93%